CW9540 Weather Reports


Display with metric or nautical units.
time (UTC)temp
F
wind
direction
speed
MPH
gust
MPH
rain 1hr
in
rain 24hr
in
rain mn
in
humidity
%
barometer
mb
20260507233051 50 0 0.0 4.0 0.00 0.07 0.00 52 1009.3
20260507231550 50 56 1.0 3.0 0.00 0.07 0.00 52 1009.2
20260507230052 51 18 1.0 4.0 0.00 0.07 0.00 53 1009.2
20260507224551 51 1 0.0 4.0 0.00 0.07 0.00 49 1009.2
20260507223048 51 1 1.0 5.0 0.00 0.07 0.00 47 1009.2
20260507221551 51 286 2.0 5.0 0.00 0.07 0.00 48 1009.2
20260507220051 51 1 1.0 5.0 0.00 0.07 0.00 49 1009.3
20260507214555 53 70 3.0 7.0 0.00 0.07 0.00 44 1009.1
20260507213057 54 331 3.0 7.0 0.00 0.07 0.00 43 1009.2
20260507213004 54 338 4.0 7.0 0.00 0.07 0.00 42 1008.3
20260507211554 56 28 2.0 5.0 0.00 0.07 0.00 43 1009.2
20260507211004 53 2 2.0 5.0 0.00 0.07 0.00 49 1008.4
20260507210046 53 46 2.0 6.0 0.00 0.07 0.00 48 1009.3
20260507204548 52 23 2.0 4.0 0.00 0.07 0.00 49 1009.2
20260507203050 53 314 0.0 4.0 0.00 0.07 0.00 51 1009.3
20260507201550 52 11 2.0 7.0 0.00 0.07 0.00 49 1009.3
20260507200046 52 23 2.0 5.0 0.00 0.07 0.00 49 1009.5
20260507195004 53 31 3.0 5.0 0.00 0.07 0.00 50 1008.9
20260507194551 53 25 1.0 5.0 0.00 0.07 0.00 49 1009.7
20260507193047 52 44 2.0 7.0 0.00 0.07 0.00 50 1009.7
20260507191555 52 342 3.0 7.0 0.00 0.07 0.00 53 1009.8
20260507191003 53 30 2.0 3.0 0.00 0.07 0.00 54 1009.0
20260507190048 52 18 2.0 8.0 0.00 0.07 0.00 54 1009.9
20260507184552 54 333 2.0 6.0 0.00 0.07 0.00 48 1009.8
20260507183058 55 46 1.0 5.0 0.00 0.07 0.00 53 1009.7
20260507181551 54 40 2.0 6.0 0.00 0.07 0.00 49 1009.9
20260507180053 56 28 3.0 8.0 0.00 0.07 0.00 47 1010.1
20260507174549 56 25 2.0 7.0 0.00 0.07 0.00 51 1010.1
20260507173058 55 28 2.0 7.0 0.00 0.07 0.00 52 1010.2
20260507171554 56 1 1.0 6.0 0.00 0.07 0.00 47 1010.3
20260507170055 56 54 2.0 7.0 0.00 0.07 0.00 45 1010.4
20260507164553 57 336 2.0 11.0 0.00 0.07 0.00 45 1010.5
20260507163058 55 230 1.0 8.0 0.00 0.07 0.00 52 1010.8
20260507163004 54 326 1.0 5.0 0.00 0.07 0.00 49 1009.8
20260507161555 54 230 4.0 10.0 0.00 0.07 0.00 50 1010.8
20260507160053 54 250 2.0 7.0 0.00 0.07 0.00 53 1011.0
20260507154555 52 203 2.0 7.0 0.00 0.07 0.00 52 1011.1
20260507153101 52 269 3.0 8.0 0.00 0.07 0.00 54 1011.2
20260507151551 50 340 1.0 5.0 0.00 0.07 0.00 57 1011.4
20260507150054 50 178 2.0 6.0 0.00 0.07 0.00 55 1011.4
20260507144553 49 300 2.0 6.0 0.00 0.08 0.00 57 1011.5
20260507143104 49 252 1.0 4.0 0.00 0.08 0.00 61 1011.5
20260507141550 49 46 1.0 4.0 0.00 0.08 0.00 63 1011.7
20260507140046 46 335 1.0 3.0 0.00 0.08 0.00 65 1012.0
20260507134551 45 0 1.0 3.0 0.00 0.09 0.00 63 1012.0
20260507134003 46 335 2.0 3.0 0.00 0.08 0.00 66 1011.3
20260507133050 45 331 0.0 2.0 0.00 0.09 0.00 70 1012.2
20260507131551 44 0 1.0 2.0 0.00 0.09 0.00 73 1012.3
20260507124555 43 15 1.0 3.0 0.00 0.11 0.00 85 1012.1
20260507123051 42 79 1.0 4.0 0.00 0.11 0.00 90 1012.3
20260507121555 42 0 0.0 2.0 0.00 0.11 0.00 94 1011.9
20260507120052 41 89 0.0 2.0 0.00 0.11 0.00 95 1012.1
20260507114550 40 324 0.0 2.0 0.00 0.13 0.00 95 1011.8
20260507113047 40 89 0.0 2.0 0.00 0.13 0.00 94 1011.8
20260507112003 39 98 1.0 2.0 0.00 0.12 0.00 95 1011.2
20260507111547 39 117 0.0 1.0 0.00 0.13 0.00 94 1012.0
20260507110058 38 46 0.0 2.0 0.00 0.13 0.00 94 1011.9
20260507110003 39 342 1.0 2.0 0.00 0.13 0.00 95 1011.1
20260507104600 38 178 1.0 2.0 0.00 0.17 0.00 94 1011.5
20260507103127 37 223 0.0 2.0 0.00 0.17 0.00 94 1011.5
20260507101550 37 0 0.0 2.0 0.00 0.17 0.00 94 1011.3
20260507100059 36 0 0.0 2.0 0.00 0.17 0.00 94 1011.4
20260507094549 36 0 0.0 1.0 0.00 0.21 0.00 93 1011.4
20260507093050 36 0 0.0 1.0 0.00 0.21 0.00 93 1011.5
20260507091549 37 253 0.0 2.0 0.00 0.21 0.00 93 1011.3
20260507091003 37 99 1.0 1.0 0.00 0.21 0.00 93 1010.4
20260507090055 37 178 0.0 1.0 0.00 0.21 0.00 93 1011.4
20260507084603 37 135 0.0 1.0 0.00 0.27 0.00 93 1011.4
20260507083045 38 0 0.0 1.0 0.00 0.27 0.00 92 1011.5
20260507081550 38 314 0.0 1.0 0.00 0.27 0.00 92 1011.4
20260507080054 39 105 0.0 1.0 0.00 0.27 0.00 92 1011.4
20260507074548 39 0 0.0 1.0 0.00 0.34 0.00 92 1011.7
20260507073204 40 135 0.0 2.0 0.00 0.34 0.00 92 1011.6
20260507073004 40 123 1.0 2.0 0.00 0.31 0.00 92 1010.8
20260507072504 40 130 1.0 2.0 0.00 0.31 0.00 92 1010.9
20260507072004 41 144 0.0 1.0 0.00 0.32 0.00 92 1011.0
20260507071550 40 0 0.0 1.0 0.00 0.34 0.00 92 1011.8
20260507071504 41 295 0.0 1.0 0.00 0.33 0.00 92 1011.0
20260507071004 41 58 0.0 1.0 0.00 0.33 0.00 92 1010.8
20260507070504 41 59 0.0 1.0 0.00 0.34 0.00 92 1010.8
20260507070103 41 0 0.0 1.0 0.00 0.34 0.00 91 1011.7
20260507070009 41 147 0.0 1.0 0.00 0.35 0.00 92 1010.8
20260507065504 41 144 0.0 1.0 0.00 0.35 0.00 92 1010.8
20260507065003 42 61 0.0 1.0 0.00 0.36 0.00 92 1010.7
20260507064555 41 0 0.0 1.0 0.00 0.45 0.00 91 1011.6
20260507064504 42 320 0.0 1.0 0.00 0.36 0.00 92 1010.7
20260507063503 42 161 1.0 1.0 0.00 0.39 0.00 92 1010.7
20260507063044 42 0 0.0 2.0 0.00 0.45 0.00 91 1011.6
20260507063004 42 229 1.0 2.0 0.00 0.40 0.00 91 1010.7
20260507062504 42 326 1.0 1.0 0.00 0.41 0.00 91 1010.6
20260507062003 42 238 0.0 1.0 0.00 0.42 0.00 91 1010.5
20260507061551 42 0 0.0 1.0 0.00 0.45 0.00 91 1011.5
20260507061504 42 97 0.0 1.0 0.00 0.43 0.00 91 1010.5
20260507061003 42 83 0.0 1.0 0.00 0.44 0.00 91 1010.6
20260507060503 42 282 0.0 1.0 0.00 0.45 0.00 91 1010.7
20260507060053 42 152 0.0 1.0 0.00 0.45 0.00 90 1011.7
20260507060004 43 132 1.0 1.0 0.00 0.45 0.00 91 1010.8
20260507055504 43 77 0.0 1.0 0.00 0.46 0.00 91 1011.0
20260507055004 42 254 0.0 1.0 0.00 0.47 0.00 91 1011.1
20260507054609 42 0 0.0 1.0 0.00 0.51 0.00 90 1011.9
20260507054504 43 161 1.0 1.0 0.00 0.47 0.00 90 1011.0
20260507054003 43 176 0.0 1.0 0.00 0.47 0.00 90 1011.1
20260507053504 43 186 0.0 1.0 0.00 0.47 0.00 90 1011.1
20260507053058 42 0 0.0 1.0 0.00 0.51 0.00 90 1012.1
20260507053004 43 154 0.0 1.0 0.00 0.47 0.00 90 1011.2
20260507052504 43 22 0.0 1.0 0.00 0.48 0.00 90 1011.2
20260507051556 43 0 0.0 1.0 0.00 0.51 0.00 90 1012.0
20260507051503 43 101 0.0 1.0 0.00 0.49 0.00 90 1011.1
20260507050504 43 59 0.0 1.0 0.00 0.50 0.00 90 1011.3
20260507050053 43 0 0.0 2.0 0.00 0.51 0.00 90 1012.1
20260507050004 43 49 0.0 2.0 0.00 0.51 0.00 91 1011.3
20260507045503 43 115 0.0 2.0 0.00 0.52 0.00 90 1011.3
20260507045004 43 112 0.0 2.0 0.00 0.53 0.00 91 1011.3
20260507044556 43 0 0.0 3.0 0.00 0.56 0.00 90 1012.2
20260507044503 43 231 0.0 3.0 0.00 0.53 0.00 91 1011.3
20260507044004 44 83 0.0 2.0 0.00 0.53 0.00 91 1011.2
20260507043504 44 201 0.0 2.0 0.00 0.53 0.00 91 1011.2
20260507043044 43 250 0.0 2.0 0.00 0.56 0.00 91 1012.1
20260507042504 44 280 0.0 2.0 0.00 0.54 0.00 92 1011.1
20260507042003 44 210 0.0 2.0 0.00 0.54 0.00 92 1011.1
20260507041601 43 193 0.0 4.0 0.00 0.56 0.00 92 1012.1
20260507041503 44 217 1.0 3.0 0.00 0.55 0.00 92 1011.2
20260507041004 44 226 2.0 3.0 0.00 0.55 0.00 92 1011.0
20260507040504 44 245 1.0 2.0 0.00 0.55 0.00 93 1011.0
20260507040053 43 0 0.0 3.0 0.00 0.56 0.00 92 1011.9
20260507035504 44 226 1.0 2.0 0.00 0.56 0.56 93 1011.0
20260507035003 44 200 1.0 2.0 0.00 0.57 0.56 93 1010.9
20260507034546 43 257 0.0 2.0 0.00 0.60 0.56 93 1011.9
20260507034503 44 227 1.0 2.0 0.00 0.57 0.56 93 1011.0
20260507034004 44 293 1.0 2.0 0.00 0.58 0.56 93 1010.9
20260507033048 43 0 0.0 2.0 0.00 0.60 0.56 93 1011.9
20260507033003 44 169 1.0 2.0 0.00 0.59 0.56 93 1010.9
20260507032504 44 227 0.0 1.0 0.00 0.59 0.56 93 1010.8
20260507032004 44 332 1.0 3.0 0.00 0.59 0.56 93 1010.8
20260507031550 44 0 0.0 2.0 0.00 0.60 0.56 93 1011.7
20260507031004 44 25 1.0 2.0 0.00 0.59 0.56 93 1010.8
20260507030504 44 236 1.0 2.0 0.00 0.60 0.56 93 1010.8
20260507030051 43 0 0.0 1.0 0.00 0.60 0.56 92 1011.7
20260507030003 44 300 0.0 1.0 0.00 0.60 0.56 93 1010.8
20260507025504 44 98 0.0 1.0 0.00 0.60 0.56 92 1010.7
20260507025004 44 156 1.0 2.0 0.00 0.60 0.56 92 1010.6
20260507024553 43 0 0.0 2.0 0.00 0.61 0.56 92 1011.6
20260507024504 44 118 0.0 2.0 0.00 0.60 0.56 92 1010.7
20260507023505 44 233 0.0 2.0 0.00 0.60 0.56 92 1010.7
20260507023048 44 0 0.0 2.0 0.00 0.61 0.56 92 1011.8
20260507023004 44 129 0.0 2.0 0.00 0.61 0.56 92 1010.7
20260507022504 44 212 1.0 2.0 0.00 0.61 0.56 92 1010.7
20260507022003 44 176 0.0 2.0 0.00 0.61 0.56 92 1010.7
20260507021606 43 178 0.0 2.0 0.00 0.61 0.56 92 1011.6
20260507021504 44 175 0.0 1.0 0.00 0.61 0.56 92 1010.7
20260507021004 44 189 0.0 2.0 0.00 0.61 0.56 92 1010.8
20260507020503 44 156 1.0 2.0 0.00 0.61 0.56 92 1010.8
20260507020107 44 178 0.0 2.0 0.00 0.61 0.56 91 1011.9
20260507015504 44 304 1.0 1.0 0.00 0.62 0.56 92 1010.9
20260507014618 44 0 0.0 2.0 0.00 0.65 0.56 91 1011.8
20260507014504 44 274 0.0 2.0 0.00 0.63 0.56 92 1010.8
20260507014003 44 328 0.0 1.0 0.00 0.63 0.56 91 1010.7
20260507013503 44 27 0.0 2.0 0.00 0.64 0.56 91 1010.7
20260507013051 44 56 0.0 5.0 0.00 0.65 0.56 91 1011.7
20260507013004 44 38 1.0 2.0 0.00 0.64 0.56 92 1010.7
20260507012503 44 334 1.0 5.0 0.00 0.64 0.56 91 1010.8
20260507012004 44 339 2.0 3.0 0.01 0.64 0.56 91 1010.9
20260507011553 44 0 1.0 5.0 0.01 0.65 0.56 91 1011.8
20260507010503 45 350 2.0 3.0 0.03 0.65 0.56 92 1010.7
20260507010050 44 338 2.0 5.0 0.03 0.65 0.56 91 1011.5
20260507010004 45 340 2.0 5.0 0.03 0.65 0.56 92 1010.7
20260507005503 45 347 2.0 3.0 0.04 0.65 0.56 92 1010.6
20260507005003 45 358 2.0 6.0 0.04 0.65 0.56 92 1010.3
20260507004546 44 327 2.0 4.0 0.04 0.67 0.56 91 1011.1
20260507004003 45 12 1.0 3.0 0.04 0.65 0.56 91 1009.8
20260507003503 45 4 1.0 3.0 0.05 0.65 0.56 91 1009.6
20260507003049 45 32 1.0 5.0 0.06 0.67 0.56 90 1010.5
20260507003004 45 353 1.0 3.0 0.06 0.65 0.56 91 1009.6
20260507002505 46 2 2.0 3.0 0.07 0.65 0.56 90 1009.8
20260507002004 46 33 2.0 3.0 0.06 0.64 0.55 90 1009.8
20260507001601 46 342 2.0 8.0 0.06 0.66 0.55 89 1010.8
20260507001503 46 5 2.0 8.0 0.06 0.65 0.55 90 1009.8
20260507001004 47 341 2.0 8.0 0.05 0.64 0.54 90 1009.8
20260507000503 48 326 3.0 3.0 0.04 0.63 0.53 91 1009.5
20260507000118 48 0 0.0 3.0 0.04 0.64 0.52 90 1010.0
20260507000004 48 355 0.0 3.0 0.04 0.64 0.53 91 1009.1
20260506235503 48 60 1.0 2.0 0.03 0.63 0.52 90 1009.1
20260506235003 48 188 1.0 3.0 0.03 0.63 0.52 90 1009.2
20260506234610 48 201 0.0 2.0 0.03 0.67 0.52 89 1010.1
20260506234503 48 213 0.0 2.0 0.03 0.63 0.52 89 1009.1
20260506234004 48 314 1.0 2.0 0.03 0.63 0.52 88 1009.1
20260506233504 49 338 1.0 2.0 0.02 0.63 0.51 87 1008.9